Location: New Plymouth
(39.0670°S, 174.0830°E)
Time: 23:18:44
(UTC+12:00)

NOAA 19 - Pass Details

Date: 24 August 2019
Orbit: 840 x 862 km, 99.2° (Epoch: 22 September)

Event Time Altitude Azimuth Distance (km) Brightness Sun altitude
Rises 06:02:49 0° 339° (NNW) 3,386 8.2 -11.7°
Reaches altitude 10° 06:05:43 10° 323° (NW) 2,462 7.3 -11.1°
Maximum altitude 06:09:49 22° 274° (W) 1,797 6.3 -10.3°
Drops below altitude 10° 06:13:59 10° 225° (SW) 2,491 7.2 -9.5°
Sets 06:16:57 0° 209° (SSW) 3,438 8.0 -8.9°
